SCP
0 0 0 0 0 0 1 3 3 2 2 3 2 2 2 2 2 1 1 1 2 1 1 1 1 0 0 0 0 0 0 0
0 0 0 0 0 0 0 5 4 4 3 3 4 2 2 1 1 1 1 1 2 1 1 1 1 0 0 0 0 0 0 0
0 0 0 0 0 0 0 2 4 4 3 2 3 3 2 1 1 1 1 1 1 1 1 1 0 0 0 0 0 0 0 0
0 0 0 0 0 0 0 0 0 1 2 2 2 1 1 1 1 1 1 1 1 1 1 0 0 0 0 0 0 0 0 0
0 0 0 0 0 0 0 0 0 0 0 1 2 2 2 1 1 1 1 1 1 1 0 0 0 0 0 0 0 0 0 0
0 0 0 0 0 0 0 0 0 0 0 0 1 1 1 0 0 1 1 1 1 1 0 0 0 0 0 0 0 0 0 0
0 0 0 0 0 0 0 0 0 0 0 0 1 1 1 0 0 0 0 0 1 0 1 0 0 0 0 0 0 0 0 0
0 0 0 0 0 0 0 0 0 0 0 0 0 0 0 0 0 0 0 0 0 1 1 0 0 0 0 0 0 0 0 0
0 0 0 0 0 0 0 0 0 0 0 0 0 0 0 0 0 0 0 0 0 0 0 0 0 0 0 0 0 0 0 0
0 0 0 0 0 0 0 0 0 0 0 0 0 0 0 0 0 0 0 0 0 0 0 0 0 0 0 0 0 0 0 0
0 0 0 0 0 0 -0 -0 -0 0 0 0 0 0 0 0 0 0 0 0 0 0 0 0 0 0 0 0 0 0 0 0
0 0 0 0 0 0 0 0 -0 -0 0 0 0 0 0 0 0 0 0 0 0 0 0 0 0 0 0 0 0 0 0 0
0 0 0 0 0 0 -0 -0 -0 -0 0 0 0 0 0 0 0 0 0 0 0 0 0 0 0 0 0 0 0 0 0 0
0 0 0 0 0 -0 -0 -0 -0 -0 -0 0 0 0 0 0 0 0 0 0 0 0 0 0 0 0 0 0 0 0 0 0
0 0 0 0 -0 -0 0 0 -0 -0 -0 0 0 0 0 0 0 0 0 0 0 0 0 0 0 0 0 0 0 0 0 0
0 0 0 0 0 0 0 0 0 -0 -0 0 0 0 0 0 0 0 0 0 0 0 0 0 0 0 0 0 0 0 0 0
0 0 0 0 0 0 0 0 0 -0 0 0 0 0 0 0 0 0 0 0 0 0 0 0 0 0 0 0 0 0 0 0
0 0 0 0 0 0 0 0 -0 -0 0 0 0 0 0 0 0 0 0 0 0 0 0 0 0 0 0 0 0 0 0 0
0 0 0 0 0 0 0 0 0 0 0 0 0 0 0 0 0 0 0 0 0 0 0 0 0 0 0 0 0 0 0 0
Wind_Speed_500mb
79 72 73 69 72 61 71 70 75 76 72 60 47 48 65 60 62 61 55 51 58 63 63 58 54 50 50 52 52 53 53 48
88 79 68 62 55 72 69 67 78 80 74 65 54 47 55 68 72 67 66 60 55 60 64 57 54 55 54 53 54 55 57 50
89 88 73 62 48 48 39 28 59 63 57 54 53 42 46 61 62 68 70 70 64 56 65 69 65 61 56 53 54 57 56 52
41 49 56 52 49 45 40 33 24 26 31 39 47 46 47 61 62 71 76 73 70 63 66 72 69 66 66 57 55 55 60 56
39 26 52 55 46 43 37 31 32 28 16 47 52 58 63 69 74 76 75 70 62 61 61 64 70 73 69 58 54 55 54 56
35 35 49 25 19 20 19 23 27 27 30 23 37 62 65 73 73 79 78 68 66 69 65 63 65 68 70 62 58 56 57 57
43 48 42 41 37 31 24 17 10 10 14 24 40 39 63 75 75 77 71 62 80 77 72 72 67 67 61 63 57 59 57 57
58 61 46 37 33 27 21 12 9 19 30 24 30 38 52 70 73 73 65 57 69 95 84 78 72 70 60 55 54 57 60 55
56 41 32 27 19 9 7 10 20 30 41 49 49 38 44 63 62 61 61 59 60 69 86 83 73 70 61 57 56 58 54 55
53 42 35 25 19 26 32 32 41 45 46 51 58 61 50 64 68 63 62 61 66 60 68 77 72 70 64 58 61 58 53 55
59 50 35 21 18 26 35 46 53 54 57 57 56 59 61 56 72 69 59 75 65 67 59 66 72 68 66 58 65 58 53 56
48 36 24 17 16 26 36 45 52 57 60 59 55 58 60 67 70 70 62 67 63 68 64 57 65 65 63 62 56 57 58 53
36 26 23 24 28 34 42 51 53 60 62 60 50 44 43 58 64 58 66 65 70 64 54 50 54 63 63 67 58 61 54 52
37 36 39 39 43 48 51 55 60 65 64 55 46 39 43 55 49 49 67 66 74 62 55 52 53 55 62 61 55 54 52 47
44 44 43 46 47 52 57 61 67 71 68 50 43 43 47 44 48 55 67 70 70 55 52 48 50 53 57 56 58 51 47 41
46 49 50 51 52 56 62 68 74 74 68 52 42 40 45 46 48 57 63 76 65 57 49 49 48 42 51 56 54 48 43 41
50 44 48 49 51 59 65 70 76 75 67 57 44 39 45 47 48 60 70 71 61 52 52 50 46 43 43 46 47 46 41 35
38 41 48 49 54 56 61 67 69 67 62 55 44 37 46 49 48 59 72 67 54 58 55 47 42 37 36 42 43 42 40 38
34 40 47 49 49 52 54 56 56 57 55 49 43 30 42 42 49 57 75 55 63 55 52 46 40 37 34 36 37 33 31 27
Wind_Direction_500mb
242 242 234 239 231 227 228 219 217 222 221 223 228 224 217 227 238 243 242 234 230 223 229 234 230 226 227 233 231 230 232 235
234 230 233 225 222 228 229 220 209 212 214 212 217 232 236 224 231 246 248 246 239 219 223 223 225 227 230 228 226 225 230 228
228 223 216 228 205 183 165 164 206 211 216 223 229 243 252 244 236 235 243 246 248 242 223 219 221 230 226 226 225 222 224 224
188 185 183 187 184 177 170 155 159 209 229 233 237 232 237 239 235 231 234 237 245 248 231 224 220 227 230 225 221 226 224 229
201 207 180 182 179 190 199 200 196 179 187 232 244 244 246 243 240 238 233 241 242 241 238 229 223 228 232 230 230 226 232 227
188 171 156 146 151 166 195 218 229 243 243 254 263 247 250 247 244 241 236 241 246 244 235 234 227 227 231 231 230 230 232 232
131 119 118 130 131 132 138 138 173 230 268 277 278 273 252 246 243 244 247 248 236 236 232 233 230 233 232 232 235 229 235 237
115 125 116 102 100 97 114 134 225 238 249 257 267 277 266 258 254 253 257 252 232 231 234 235 231 232 236 232 230 230 232 237
109 109 104 84 67 49 348 282 285 274 270 264 260 268 262 257 253 256 261 254 238 237 232 235 232 233 236 228 230 231 231 235
90 83 75 59 19 355 339 318 309 305 302 286 273 261 258 256 255 255 255 253 244 240 236 232 232 232 235 226 227 225 225 230
72 74 67 49 4 337 321 311 306 307 309 301 283 264 254 245 249 252 250 241 249 233 233 234 232 234 232 229 223 225 225 229
66 55 48 26 336 314 304 306 308 313 315 307 287 267 261 242 242 247 247 238 241 221 232 231 226 232 225 227 225 225 226 229
60 44 11 350 336 321 319 318 316 317 315 309 290 283 258 254 240 246 239 230 226 225 233 231 229 222 225 224 224 222 221 223
33 26 8 352 341 330 328 325 325 322 317 308 285 259 250 237 235 261 230 227 220 215 225 235 227 224 223 224 221 224 221 227
23 11 0 358 351 339 332 330 332 328 322 307 284 258 249 262 253 250 223 219 210 211 229 229 222 224 219 216 218 222 224 228
22 9 2 358 349 344 340 336 333 329 324 313 290 263 245 257 244 236 224 209 201 219 222 213 216 219 217 217 219 219 220 222
9 5 1 356 352 349 343 336 334 332 327 316 300 261 239 248 239 223 213 201 199 211 203 205 209 214 213 205 207 212 212 217
3 1 360 359 357 350 345 342 337 331 326 316 301 251 244 244 230 219 207 195 197 197 203 203 206 201 195 196 203 208 206 214
6 3 2 2 358 354 352 348 341 336 331 321 300 244 226 238 235 219 202 196 191 195 199 193 187 184 179 180 183 184 182 190
Wind_Speed_850mb
79 72 73 69 72 61 71 70 75 76 72 60 47 48 65 60 62 61 55 51 58 63 63 58 54 50 50 52 52 53 53 48
88 79 68 62 55 72 69 67 78 80 74 65 54 47 55 68 72 67 66 60 55 60 64 57 54 55 54 53 54 55 57 50
89 88 73 62 48 48 39 28 59 63 57 54 53 42 46 61 62 68 70 70 64 56 65 69 65 61 56 53 54 57 56 52
41 49 56 52 49 45 40 33 24 26 31 39 47 46 47 61 62 71 76 73 70 63 66 72 69 66 66 57 55 55 60 56
39 26 52 55 46 43 37 31 32 28 16 47 52 58 63 69 74 76 75 70 62 61 61 64 70 73 69 58 54 55 54 56
35 35 49 25 19 20 19 23 27 27 30 23 37 62 65 73 73 79 78 68 66 69 65 63 65 68 70 62 58 56 57 57
43 48 42 41 37 31 24 17 10 10 14 24 40 39 63 75 75 77 71 62 80 77 72 72 67 67 61 63 57 59 57 57
58 61 46 37 33 27 21 12 9 19 30 24 30 38 52 70 73 73 65 57 69 95 84 78 72 70 60 55 54 57 60 55
56 41 32 27 19 9 7 10 20 30 41 49 49 38 44 63 62 61 61 59 60 69 86 83 73 70 61 57 56 58 54 55
53 42 35 25 19 26 32 32 41 45 46 51 58 61 50 64 68 63 62 61 66 60 68 77 72 70 64 58 61 58 53 55
59 50 35 21 18 26 35 46 53 54 57 57 56 59 61 56 72 69 59 75 65 67 59 66 72 68 66 58 65 58 53 56
48 36 24 17 16 26 36 45 52 57 60 59 55 58 60 67 70 70 62 67 63 68 64 57 65 65 63 62 56 57 58 53
36 26 23 24 28 34 42 51 53 60 62 60 50 44 43 58 64 58 66 65 70 64 54 50 54 63 63 67 58 61 54 52
37 36 39 39 43 48 51 55 60 65 64 55 46 39 43 55 49 49 67 66 74 62 55 52 53 55 62 61 55 54 52 47
44 44 43 46 47 52 57 61 67 71 68 50 43 43 47 44 48 55 67 70 70 55 52 48 50 53 57 56 58 51 47 41
46 49 50 51 52 56 62 68 74 74 68 52 42 40 45 46 48 57 63 76 65 57 49 49 48 42 51 56 54 48 43 41
50 44 48 49 51 59 65 70 76 75 67 57 44 39 45 47 48 60 70 71 61 52 52 50 46 43 43 46 47 46 41 35
38 41 48 49 54 56 61 67 69 67 62 55 44 37 46 49 48 59 72 67 54 58 55 47 42 37 36 42 43 42 40 38
34 40 47 49 49 52 54 56 56 57 55 49 43 30 42 42 49 57 75 55 63 55 52 46 40 37 34 36 37 33 31 27
Wind_Direction_850mb
242 242 234 239 231 227 228 219 217 222 221 223 228 224 217 227 238 243 242 234 230 223 229 234 230 226 227 233 231 230 232 235
234 230 233 225 222 228 229 220 209 212 214 212 217 232 236 224 231 246 248 246 239 219 223 223 225 227 230 228 226 225 230 228
228 223 216 228 205 183 165 164 206 211 216 223 229 243 252 244 236 235 243 246 248 242 223 219 221 230 226 226 225 222 224 224
188 185 183 187 184 177 170 155 159 209 229 233 237 232 237 239 235 231 234 237 245 248 231 224 220 227 230 225 221 226 224 229
201 207 180 182 179 190 199 200 196 179 187 232 244 244 246 243 240 238 233 241 242 241 238 229 223 228 232 230 230 226 232 227
188 171 156 146 151 166 195 218 229 243 243 254 263 247 250 247 244 241 236 241 246 244 235 234 227 227 231 231 230 230 232 232
131 119 118 130 131 132 138 138 173 230 268 277 278 273 252 246 243 244 247 248 236 236 232 233 230 233 232 232 235 229 235 237
115 125 116 102 100 97 114 134 225 238 249 257 267 277 266 258 254 253 257 252 232 231 234 235 231 232 236 232 230 230 232 237
109 109 104 84 67 49 348 282 285 274 270 264 260 268 262 257 253 256 261 254 238 237 232 235 232 233 236 228 230 231 231 235
90 83 75 59 19 355 339 318 309 305 302 286 273 261 258 256 255 255 255 253 244 240 236 232 232 232 235 226 227 225 225 230
72 74 67 49 4 337 321 311 306 307 309 301 283 264 254 245 249 252 250 241 249 233 233 234 232 234 232 229 223 225 225 229
66 55 48 26 336 314 304 306 308 313 315 307 287 267 261 242 242 247 247 238 241 221 232 231 226 232 225 227 225 225 226 229
60 44 11 350 336 321 319 318 316 317 315 309 290 283 258 254 240 246 239 230 226 225 233 231 229 222 225 224 224 222 221 223
33 26 8 352 341 330 328 325 325 322 317 308 285 259 250 237 235 261 230 227 220 215 225 235 227 224 223 224 221 224 221 227
23 11 0 358 351 339 332 330 332 328 322 307 284 258 249 262 253 250 223 219 210 211 229 229 222 224 219 216 218 222 224 228
22 9 2 358 349 344 340 336 333 329 324 313 290 263 245 257 244 236 224 209 201 219 222 213 216 219 217 217 219 219 220 222
9 5 1 356 352 349 343 336 334 332 327 316 300 261 239 248 239 223 213 201 199 211 203 205 209 214 213 205 207 212 212 217
3 1 360 359 357 350 345 342 337 331 326 316 301 251 244 244 230 219 207 195 197 197 203 203 206 201 195 196 203 208 206 214
6 3 2 2 358 354 352 348 341 336 331 321 300 244 226 238 235 219 202 196 191 195 199 193 187 184 179 180 183 184 182 190